"TOA5","MOW","CPU:UNC_MeetingWaters","DataHourly"
"TIMESTAMP","SondeTempC","SpCond","DOSat","DOmg","pH","Turb","BattVolt_Min"
"TS","","","","","","",""
"","Smp","Smp","Smp","Smp","Smp","Smp","Min"
"2001-08-01 00:00:00",21.7299995422,0.202000007033,-0.300000011921,-0.019999999553,7.63999986649,9.0,12.6400003433
"2001-08-01 01:00:00",21.5400009155,0.20000000298,-0.300000011921,-0.019999999553,7.65000009537,5.80000019073,12.6199998856
"2001-08-01 02:00:00",21.3600006104,0.197999998927,-0.300000011921,-0.019999999553,7.63999986649,5.80000019073,12.6199998856
"2001-08-01 03:00:00",21.2399997711,0.196999996901,-0.300000011921,-0.019999999553,7.63000011444,10.5,12.6000003815
"2001-08-01 04:00:00",21.0599994659,0.195999994874,-0.300000011921,-0.019999999553,7.61999988556,6.40000009537,12.5900001526
"2001-08-01 05:00:00",20.8999996185,0.197999998927,-0.300000011921,-0.019999999553,7.63999986649,5.90000009537,12.5699996948
"2001-08-01 06:00:00",20.7099990845,0.196999996901,-0.300000011921,-0.019999999553,7.65999984741,5.5,12.5600004196
"2001-08-01 07:00:00",20.5699996948,0.194999992847,-0.20000000298,-0.019999999553,7.67000007629,5.69999980927,12.5399999619
"2001-08-01 08:00:00",20.5400009155,0.194999992847,-0.20000000298,-0.019999999553,7.69999980927,5.09999990463,12.5600004196
"2001-08-01 09:00:00",20.6499996185,0.194999992847,-0.20000000298,-0.019999999553,7.73000001907,4.80000019073,12.9200000763
"2001-08-01 10:00:00",20.7299995422,0.194000005722,-0.300000011921,-0.019999999553,7.73000001907,4.40000009537,12.8500003815
"2001-08-01 11:00:00",20.8500003815,0.194000005722,-0.300000011921,-0.019999999553,7.73999977112,4.90000009537,13.0
"2001-08-01 12:00:00",20.9699993134,0.194000005722,-0.300000011921,-0.019999999553,7.73000001907,5.09999990463,13.0600004196
"2001-08-01 13:00:00",21.1499996185,0.194000005722,-0.300000011921,-0.019999999553,7.76000022888,4.80000019073,13.1899995804
"2001-08-01 14:00:00",21.7099990845,0.194000005722,-0.300000011921,-0.019999999553,7.80999994278,4.90000009537,13.0799999237
"2001-08-01 15:00:00",22.2099990845,0.184000000358,-0.300000011921,-0.019999999553,7.84999990463,4.30000019073,13.1000003815
"2001-08-01 16:00:00",22.3899993896,0.197999998927,-0.300000011921,-0.0299999993294,7.80999994278,4.69999980927,13.0500001907
"2001-08-01 17:00:00",22.2299995422,0.197999998927,-0.300000011921,-0.0299999993294,7.78999996185,5.0,13.0600004196
"2001-08-01 18:00:00",22.0499992371,0.194999992847,-0.300000011921,-0.0299999993294,7.73999977112,4.69999980927,12.8299999237
"2001-08-01 19:00:00",21.9099998474,0.193000003695,-0.300000011921,-0.0299999993294,7.69999980927,4.90000009537,12.7600002289
"2001-08-01 20:00:00",21.8400001526,0.194999992847,-0.300000011921,-0.0299999993294,7.67000007629,5.59999990463,12.720000267
"2001-08-01 21:00:00",21.7000007629,0.203999996185,-0.300000011921,-0.0299999993294,7.67000007629,6.40000009537,12.6999998093
"2001-08-01 22:00:00",21.5400009155,0.212999999523,-0.300000011921,-0.019999999553,7.67999982834,5.59999990463,12.6800003052
"2001-08-01 23:00:00",21.3400001526,0.211999997497,-0.300000011921,-0.019999999553,7.67999982834,5.40000009537,12.6599998474
"2001-08-02 00:00:00",21.1000003815,0.206000000238,-0.300000011921,-0.019999999553,7.67000007629,6.90000009537,12.6400003433
"2001-08-02 01:00:00",20.8400001526,0.202999994159,-0.300000011921,-0.019999999553,7.67000007629,8.80000019073,12.6199998856
"2001-08-02 02:00:00",20.5900001526,0.201000005007,-0.300000011921,-0.019999999553,7.63999986649,9.5,12.6000003815
"2001-08-02 03:00:00",20.3700008392,0.201000005007,-0.20000000298,-0.019999999553,7.65000009537,10.5,12.5799999237
"2001-08-02 04:00:00",20.1299991608,0.202000007033,-0.20000000298,-0.019999999553,7.65999984741,10.1999998093,12.5600004196
"2001-08-02 05:00:00",19.9099998474,0.202999994159,-0.20000000298,-0.019999999553,7.63000011444,10.3999996185,12.5399999619
"2001-08-02 06:00:00",19.7399997711,0.202999994159,-0.20000000298,-0.019999999553,7.65999984741,10.3000001907,12.5200004578
"2001-08-02 07:00:00",19.5,0.202000007033,-0.20000000298,-0.019999999553,7.63999986649,9.5,12.5
"2001-08-02 08:00:00",19.3799991608,0.202999994159,-0.20000000298,-0.019999999553,7.65999984741,8.39999961853,12.5200004578
"2001-08-02 09:00:00",19.5799999237,0.206000000238,-0.20000000298,-0.019999999553,7.71000003815,7.30000019073,12.6400003433
"2001-08-02 10:00:00",19.8500003815,0.211999997497,-0.20000000298,-0.019999999553,7.71000003815,6.90000009537,13.279999733
"2001-08-02 11:00:00",20.5900001526,0.225999996066,-0.20000000298,-0.019999999553,7.84000015259,6.19999980927,13.1800003052
"2001-08-02 12:00:00",21.2000007629,0.237000003457,-0.20000000298,-0.019999999553,7.86999988556,5.59999990463,13.1099996567
"2001-08-02 13:00:00",21.7299995422,0.240999996662,-0.300000011921,-0.019999999553,7.84000015259,5.59999990463,13.0
"2001-08-02 14:00:00",22.0499992371,0.228000000119,-0.300000011921,-0.019999999553,7.84000015259,5.40000009537,13.0600004196
"2001-08-02 15:00:00",22.3500003815,0.21400000155,-0.300000011921,-0.0299999993294,7.76999998093,5.5,13.029999733
"2001-08-02 16:00:00",22.7800006866,0.208000004292,-0.300000011921,-0.0299999993294,7.76999998093,5.30000019073,13.0100002289
"2001-08-02 17:00:00",22.3199996948,0.203999996185,-0.300000011921,-0.0299999993294,7.71999979019,7.19999980927,12.9899997711
"2001-08-02 18:00:00",22.1299991608,0.204999998212,-0.300000011921,-0.0299999993294,7.69999980927,8.69999980927,12.8199996948
"2001-08-02 19:00:00",21.9500007629,0.207000002265,-0.300000011921,-0.0299999993294,7.65999984741,10.6000003815,12.75
"2001-08-02 20:00:00",21.8899993896,0.212999999523,-0.300000011921,-0.0299999993294,7.65000009537,11.6000003815,12.720000267
"2001-08-02 21:00:00",21.7700004578,0.221000000834,-0.300000011921,-0.019999999553,7.65000009537,10.6000003815,12.6899995804
"2001-08-02 22:00:00",21.6000003815,0.22499999404,-0.300000011921,-0.019999999553,7.63999986649,10.0,12.6599998474
"2001-08-02 23:00:00",21.3700008392,0.221000000834,-0.300000011921,-0.019999999553,7.63999986649,13.1000003815,12.6400003433
"2001-08-03 00:00:00",21.1100006104,0.215000003576,-0.300000011921,-0.019999999553,7.65000009537,17.7000007629,12.6199998856
"2001-08-03 01:00:00",20.8899993896,0.211999997497,-0.300000011921,-0.019999999553,7.63999986649,18.5,12.6099996567
"2001-08-03 02:00:00",20.6499996185,0.209999993443,-0.300000011921,-0.019999999553,7.63999986649,16.2999992371,12.5900001526
"2001-08-03 03:00:00",20.4200000763,0.203999996185,-0.20000000298,-0.019999999553,7.63000011444,14.0,12.5699996948
"2001-08-03 04:00:00",20.2199993134,0.211999997497,-0.20000000298,-0.019999999553,7.63000011444,12.1999998093,12.5500001907
"2001-08-03 05:00:00",20.0100002289,0.211999997497,-0.20000000298,-0.019999999553,7.61000013351,11.1000003815,12.529999733
"2001-08-03 06:00:00",19.7299995422,0.21099999547,-0.20000000298,-0.019999999553,7.63999986649,12.1000003815,12.5
"2001-08-03 07:00:00",19.5799999237,0.211999997497,-0.20000000298,-0.019999999553,7.65999984741,8.69999980927,12.4899997711
"2001-08-03 08:00:00",19.4799995422,0.216999992728,-0.20000000298,-0.019999999553,7.67000007629,7.90000009537,12.4899997711
"2001-08-03 09:00:00",19.6599998474,0.221000000834,-0.20000000298,-0.019999999553,7.73000001907,6.90000009537,12.5600004196
"2001-08-03 10:00:00",20.0499992371,0.223000004888,-0.20000000298,-0.019999999553,7.78000020981,6.69999980927,13.2600002289
"2001-08-03 11:00:00",20.5300006866,0.232999995351,-0.20000000298,-0.019999999553,7.82000017166,7.0,13.1400003433
"2001-08-03 12:00:00",21.2299995422,0.232999995351,-0.300000011921,-0.019999999553,7.78999996185,6.69999980927,13.1099996567
"2001-08-03 13:00:00",21.9400005341,0.223000004888,-0.300000011921,-0.019999999553,7.80000019073,6.69999980927,13.0600004196
"2001-08-03 14:00:00",22.5300006866,0.216999992728,-0.300000011921,-0.0299999993294,7.90000009537,6.30000019073,12.8699998856
"2001-08-03 15:00:00",22.6000003815,0.211999997497,-0.300000011921,-0.0299999993294,7.86000013351,6.09999990463,13.0200004578
"2001-08-03 16:00:00",22.5200004578,0.212999999523,-0.300000011921,-0.0299999993294,7.82999992371,6.69999980927,13.0
"2001-08-03 17:00:00",22.6200008392,0.222000002861,-0.300000011921,-0.0299999993294,7.80000019073,7.0,13.0200004578
"2001-08-03 18:00:00",22.5300006866,0.136999994516,-0.300000011921,-0.0299999993294,7.73999977112,7.09999990463,12.8400001526
"2001-08-03 19:00:00",22.4300003052,0.186000004411,-0.300000011921,-0.0299999993294,7.67999982834,7.80000019073,12.7700004578
"2001-08-03 20:00:00",22.2800006866,0.195999994874,-0.300000011921,-0.0299999993294,7.63000011444,8.60000038147,12.7299995422
"2001-08-03 21:00:00",22.1200008392,0.16099999845,-0.300000011921,-0.0299999993294,7.61999988556,7.80000019073,12.6999998093
"2001-08-03 22:00:00",21.9599990845,0.259000003338,-0.300000011921,-0.0299999993294,7.65000009537,6.80000019073,12.6800003052
"2001-08-03 23:00:00",21.8299999237,0.270999997854,-0.300000011921,-0.019999999553,7.65999984741,6.5,12.6599998474
"2001-08-04 00:00:00",21.75,0.261999994516,-0.300000011921,-0.019999999553,7.65999984741,6.19999980927,12.6400003433
"2001-08-04 01:00:00",21.6700000763,0.252000004053,-0.300000011921,-0.019999999553,7.67000007629,5.5,12.6199998856
"2001-08-04 02:00:00",21.5900001526,0.241999998689,-0.300000011921,-0.019999999553,7.65999984741,5.0,12.6000003815
"2001-08-04 03:00:00",21.5200004578,0.238999992609,-0.300000011921,-0.019999999553,7.65999984741,5.0,12.5799999237
"2001-08-04 04:00:00",21.4099998474,0.229000002146,-0.300000011921,-0.019999999553,7.63999986649,5.19999980927,12.5600004196
"2001-08-04 05:00:00",21.3099994659,0.22499999404,-0.300000011921,-0.019999999553,7.63999986649,4.69999980927,12.5399999619
"2001-08-04 06:00:00",21.2099990845,0.222000002861,-0.300000011921,-0.019999999553,7.65000009537,7.59999990463,12.529999733
"2001-08-04 07:00:00",21.1299991608,0.222000002861,-0.300000011921,-0.019999999553,7.65999984741,5.80000019073,12.5100002289
"2001-08-04 08:00:00",21.1200008392,0.226999998093,-0.300000011921,-0.019999999553,7.67999982834,6.19999980927,12.529999733
"2001-08-04 09:00:00",21.2299995422,0.232999995351,-0.300000011921,-0.019999999553,7.71999979019,5.40000009537,12.7399997711
"2001-08-04 10:00:00",21.3899993896,0.238000005484,-0.300000011921,-0.019999999553,7.76999998093,5.69999980927,13.0200004578
"2001-08-04 11:00:00",21.8299999237,0.236000001431,-0.300000011921,-0.019999999553,7.84999990463,6.5,13.1199998856
"2001-08-04 12:00:00",22.0799999237,0.228000000119,-0.300000011921,-0.019999999553,7.86999988556,5.5,13.1000003815
"2001-08-04 13:00:00",22.8299999237,0.222000002861,-0.300000011921,-0.019999999553,7.94000005722,5.09999990463,13.0500001907
"2001-08-04 14:00:00",23.2900009155,0.219999998808,-0.300000011921,-0.019999999553,7.92999982834,7.0,13.0200004578
"2001-08-04 15:00:00",23.75,0.21400000155,-0.300000011921,-0.0299999993294,7.96000003815,5.0,12.9899997711
"2001-08-04 16:00:00",23.7600002289,0.187000006437,-0.300000011921,-0.0299999993294,8.0,4.59999990463,12.970000267
"2001-08-04 17:00:00",23.6000003815,0.211999997497,-0.300000011921,-0.0299999993294,7.90000009537,4.40000009537,12.9799995422
"2001-08-04 18:00:00",23.4099998474,0.217999994755,-0.300000011921,-0.0299999993294,7.82000017166,4.40000009537,12.7899999619
"2001-08-04 19:00:00",23.2600002289,0.225999996066,-0.300000011921,-0.0299999993294,7.75,4.30000019073,12.75
"2001-08-04 20:00:00",23.1700000763,0.236000001431,-0.300000011921,-0.0299999993294,7.71999979019,4.09999990463,12.720000267
"2001-08-04 21:00:00",23.0599994659,0.232999995351,-0.300000011921,-0.0299999993294,7.69999980927,4.19999980927,12.6899995804
"2001-08-04 22:00:00",22.9300003052,0.22499999404,-0.300000011921,-0.0299999993294,7.67999982834,5.19999980927,12.6800003052
"2001-08-04 23:00:00",22.7800006866,0.224000006914,-0.300000011921,-0.0299999993294,7.65000009537,4.40000009537,12.6599998474
"2001-08-05 00:00:00",22.6200008392,0.216000005603,-0.300000011921,-0.0299999993294,7.63999986649,4.69999980927,12.6400003433
"2001-08-05 01:00:00",22.4400005341,0.215000003576,-0.300000011921,-0.0299999993294,7.61999988556,5.30000019073,12.6199998856
"2001-08-05 02:00:00",22.2700004578,0.216999992728,-0.300000011921,-0.0299999993294,7.61000013351,6.5,12.6000003815
"2001-08-05 03:00:00",22.0300006866,0.207000002265,-0.300000011921,-0.019999999553,7.59999990463,7.5,12.5900001526
"2001-08-05 04:00:00",21.8299999237,0.20000000298,-0.300000011921,-0.019999999553,7.61999988556,7.90000009537,12.5699996948
"2001-08-05 05:00:00",21.6499996185,0.211999997497,-0.300000011921,-0.019999999553,7.63000011444,6.0,12.5500001907
"2001-08-05 06:00:00",21.4599990845,0.202999994159,-0.300000011921,-0.019999999553,7.63000011444,6.40000009537,12.529999733
"2001-08-05 07:00:00",21.2800006866,0.196999996901,-0.300000011921,-0.019999999553,7.63999986649,6.40000009537,12.5100002289
"2001-08-05 08:00:00",21.1900005341,0.216000005603,-0.300000011921,-0.019999999553,7.67000007629,5.59999990463,12.5100002289
"2001-08-05 09:00:00",21.2999992371,0.155000001192,-0.300000011921,-0.019999999553,7.73999977112,5.59999990463,12.5799999237
"2001-08-05 10:00:00",21.6000003815,0.162000000477,-0.300000011921,-0.019999999553,7.80000019073,4.40000009537,13.1899995804
"2001-08-05 11:00:00",22.2399997711,0.229000002146,-0.300000011921,-0.019999999553,7.88000011444,4.59999990463,13.1099996567
"2001-08-05 12:00:00",22.6100006104,0.22499999404,-0.300000011921,-0.019999999553,7.88999986649,4.40000009537,13.0600004196
"2001-08-05 13:00:00",23.4300003052,0.216999992728,-0.300000011921,-0.019999999553,7.98000001907,4.19999980927,13.0100002289
"2001-08-05 14:00:00",23.9899997711,0.206000000238,-0.300000011921,-0.0299999993294,8.05000019073,4.09999990463,12.9899997711
"2001-08-05 15:00:00",24.4300003052,0.186000004411,-0.300000011921,-0.0299999993294,8.09000015259,4.0,12.9600000381
"2001-08-05 16:00:00",24.3199996948,0.209999993443,-0.300000011921,-0.0299999993294,8.03999996185,3.90000009537,12.9399995804
"2001-08-05 17:00:00",24.0699996948,0.211999997497,-0.300000011921,-0.0299999993294,7.96000003815,4.19999980927,12.9600000381
"2001-08-05 18:00:00",23.7900009155,0.223000004888,-0.300000011921,-0.0299999993294,7.86999988556,3.79999995232,12.8299999237
"2001-08-05 19:00:00",23.5699996948,0.231999993324,-0.300000011921,-0.0299999993294,7.80999994278,3.79999995232,12.7600002289
"2001-08-05 20:00:00",23.4599990845,0.233999997377,-0.300000011921,-0.0299999993294,7.78000020981,3.79999995232,12.720000267
"2001-08-05 21:00:00",23.3700008392,0.229000002146,-0.300000011921,-0.0299999993294,7.73999977112,3.90000009537,12.6899995804
"2001-08-05 22:00:00",23.25,0.223000004888,-0.300000011921,-0.0299999993294,7.69999980927,5.90000009537,12.6700000763
"2001-08-05 23:00:00",23.1100006104,0.21400000155,-0.300000011921,-0.0299999993294,7.67999982834,4.19999980927,12.6499996185
"2001-08-06 00:00:00",22.9200000763,0.209000006318,-0.300000011921,-0.0299999993294,7.65000009537,4.09999990463,12.6300001144
"2001-08-06 01:00:00",22.7199993134,0.204999998212,-0.300000011921,-0.0299999993294,7.61999988556,3.90000009537,12.6099996567
"2001-08-06 02:00:00",22.5300006866,0.208000004292,-0.300000011921,-0.0299999993294,7.59999990463,4.09999990463,12.5900001526
"2001-08-06 03:00:00",22.3600006104,0.212999999523,-0.300000011921,-0.0299999993294,7.57999992371,4.19999980927,12.5699996948
"2001-08-06 04:00:00",22.1399993896,0.215000003576,-0.300000011921,-0.019999999553,7.57000017166,5.5,12.5500001907
"2001-08-06 05:00:00",21.9699993134,0.21400000155,-0.300000011921,-0.0299999993294,7.57000017166,5.90000009537,12.529999733
"2001-08-06 06:00:00",21.7999992371,0.215000003576,-0.300000011921,-0.019999999553,7.57999992371,6.5,12.5100002289
"2001-08-06 07:00:00",21.6100006104,0.216999992728,-0.300000011921,-0.019999999553,7.59000015259,11.8999996185,12.5
"2001-08-06 08:00:00",21.5300006866,0.22499999404,-0.300000011921,-0.019999999553,7.61999988556,7.19999980927,12.5
"2001-08-06 09:00:00",21.6200008392,0.234999999404,-0.300000011921,-0.019999999553,7.65999984741,6.09999990463,12.5500001907
"2001-08-06 10:00:00",21.9200000763,0.236000001431,-0.300000011921,-0.019999999553,7.73000001907,5.59999990463,13.1899995804
"2001-08-06 11:00:00",22.5300006866,0.238000005484,-0.300000011921,-0.019999999553,7.84999990463,6.59999990463,13.1000003815
"2001-08-06 12:00:00",23.3099994659,0.230000004172,-0.300000011921,-0.019999999553,7.90000009537,5.30000019073,13.029999733
"2001-08-06 13:00:00",23.8600006104,0.221000000834,-0.300000011921,-0.019999999553,7.94000005722,4.80000019073,12.9899997711
"2001-08-06 14:00:00",24.2099990845,0.216000005603,-0.300000011921,-0.0299999993294,7.96000003815,4.59999990463,12.9799995422
"2001-08-06 15:00:00",24.6000003815,0.21099999547,-0.300000011921,-0.0299999993294,8.02000045776,4.5,12.9499998093
"2001-08-06 16:00:00",24.5100002289,0.209999993443,-0.300000011921,-0.0299999993294,7.98999977112,4.19999980927,12.9300003052
"2001-08-06 17:00:00",24.1700000763,0.204999998212,-0.300000011921,-0.0299999993294,7.88000011444,4.09999990463,12.9499998093
"2001-08-06 18:00:00",23.9899997711,0.20000000298,-0.300000011921,-0.0299999993294,7.75,4.80000019073,12.8100004196
"2001-08-06 19:00:00",23.7900009155,0.194999992847,-0.300000011921,-0.0299999993294,7.67999982834,4.59999990463,12.7399997711
"2001-08-06 20:00:00",23.6900005341,0.148000001907,-0.300000011921,-0.0299999993294,7.63000011444,4.30000019073,12.7100000381
"2001-08-06 21:00:00",23.5799999237,0.194999992847,-0.300000011921,-0.0299999993294,7.59000015259,4.59999990463,12.6800003052
"2001-08-06 22:00:00",23.4400005341,0.185000002384,-0.300000011921,-0.0299999993294,7.55999994278,4.69999980927,12.6599998474
"2001-08-06 23:00:00",23.2700004578,0.204999998212,-0.300000011921,-0.0299999993294,7.57999992371,7.09999990463,12.6400003433
"2001-08-07 00:00:00",23.0900001526,0.21099999547,-0.300000011921,-0.0299999993294,7.57000017166,11.5,12.6199998856
"2001-08-07 01:00:00",22.8799991608,0.216000005603,-0.300000011921,-0.0299999993294,7.59999990463,11.0,12.6000003815
"2001-08-07 02:00:00",22.6900005341,0.221000000834,-0.300000011921,-0.0299999993294,7.61000013351,11.1000003815,12.5799999237
"2001-08-07 03:00:00",22.5200004578,0.226999998093,-0.300000011921,-0.0299999993294,7.63000011444,7.40000009537,12.5600004196
"2001-08-07 04:00:00",22.3500003815,0.240999996662,-0.300000011921,-0.019999999553,7.65999984741,6.30000019073,12.5399999619
"2001-08-07 05:00:00",22.2199993134,0.254999995232,-0.300000011921,-0.019999999553,7.67999982834,5.40000009537,12.5200004578
"2001-08-07 06:00:00",22.0799999237,0.261000007391,-0.300000011921,-0.0299999993294,7.67999982834,5.30000019073,12.5100002289
"2001-08-07 07:00:00",21.9500007629,0.261000007391,-0.300000011921,-0.019999999553,7.67000007629,5.40000009537,12.4899997711
"2001-08-07 08:00:00",21.9400005341,0.256000012159,-0.300000011921,-0.019999999553,7.67000007629,5.0,12.4899997711
"2001-08-07 09:00:00",22.0699996948,0.246000006795,-0.300000011921,-0.019999999553,7.67000007629,4.80000019073,12.5500001907
"2001-08-07 10:00:00",22.3600006104,0.237000003457,-0.300000011921,-0.019999999553,7.71000003815,4.69999980927,13.1499996185
"2001-08-07 11:00:00",23.0100002289,0.230000004172,-0.300000011921,-0.019999999553,7.78000020981,4.69999980927,13.0699996948
"2001-08-07 12:00:00",23.9599990845,0.225999996066,-0.300000011921,-0.019999999553,7.90999984741,4.40000009537,12.9899997711
"2001-08-07 13:00:00",24.5300006866,0.221000000834,-0.300000011921,-0.0299999993294,7.98000001907,4.59999990463,12.9499998093
"2001-08-07 14:00:00",24.75,0.215000003576,-0.300000011921,-0.0299999993294,7.98000001907,4.5,12.8999996185
"2001-08-07 15:00:00",25.0499992371,0.215000003576,-0.300000011921,-0.0299999993294,7.92999982834,4.69999980927,12.9300003052
"2001-08-07 16:00:00",24.9699993134,0.216999992728,-0.40000000596,-0.0299999993294,7.80999994278,4.59999990463,12.9300003052
"2001-08-07 17:00:00",24.7199993134,0.216999992728,-0.40000000596,-0.0299999993294,7.78000020981,4.5,12.9300003052
"2001-08-07 18:00:00",24.6499996185,0.215000003576,-0.40000000596,-0.0299999993294,7.71000003815,4.40000009537,12.8100004196
"2001-08-07 19:00:00",24.5300006866,0.212999999523,-0.40000000596,-0.0299999993294,7.67999982834,4.09999990463,12.7399997711
"2001-08-07 20:00:00",24.3799991608,0.209999993443,-0.40000000596,-0.0299999993294,7.59999990463,4.19999980927,12.6999998093
"2001-08-07 21:00:00",24.2399997711,0.208000004292,-0.300000011921,-0.0299999993294,7.53999996185,5.19999980927,12.6700000763
"2001-08-07 22:00:00",24.1000003815,0.209999993443,-0.300000011921,-0.0299999993294,7.51999998093,4.90000009537,12.6499996185
"2001-08-07 23:00:00",23.9699993134,0.208000004292,-0.300000011921,-0.0299999993294,7.51999998093,10.1999998093,12.6300001144
"2001-08-08 00:00:00",23.7999992371,0.207000002265,-0.300000011921,-0.0299999993294,7.53000020981,15.6000003815,12.6099996567
"2001-08-08 01:00:00",23.6299991608,0.207000002265,-0.300000011921,-0.0299999993294,7.53000020981,15.6999998093,12.5900001526
"2001-08-08 02:00:00",23.4699993134,0.209000006318,-0.300000011921,-0.0299999993294,7.53000020981,11.8000001907,12.5699996948
"2001-08-08 03:00:00",23.2999992371,0.208000004292,-0.300000011921,-0.0299999993294,7.55000019073,9.5,12.5500001907
"2001-08-08 04:00:00",23.1299991608,0.206000000238,-0.300000011921,-0.019999999553,7.55999994278,8.89999961853,12.529999733
"2001-08-08 05:00:00",22.9899997711,0.202999994159,-0.300000011921,-0.019999999553,7.55000019073,6.19999980927,12.5100002289
"2001-08-08 06:00:00",22.8299999237,0.201000005007,-0.300000011921,-0.019999999553,7.53999996185,5.5,12.5100002289
"2001-08-08 07:00:00",22.7199993134,0.202000007033,-0.300000011921,-0.019999999553,7.55999994278,5.40000009537,12.4899997711
"2001-08-08 08:00:00",22.7000007629,0.203999996185,-0.300000011921,-0.019999999553,7.59000015259,4.59999990463,12.5100002289
"2001-08-08 09:00:00",22.7999992371,0.204999998212,-0.300000011921,-0.019999999553,7.63999986649,4.69999980927,12.6499996185
"2001-08-08 10:00:00",23.0300006866,0.204999998212,-0.300000011921,-0.019999999553,7.71000003815,4.69999980927,13.1300001144
"2001-08-08 11:00:00",23.4899997711,0.203999996185,-0.300000011921,-0.019999999553,7.80999994278,5.5,13.0500001907
"2001-08-08 12:00:00",24.1499996185,0.201000005007,-0.300000011921,-0.019999999553,7.90000009537,4.90000009537,12.9899997711
"2001-08-08 13:00:00",24.8500003815,0.203999996185,-0.300000011921,-0.0299999993294,8.02999973297,4.69999980927,12.9499998093
"2001-08-08 14:00:00",25.3299999237,0.222000002861,-0.300000011921,-0.0299999993294,8.10000038147,4.5,12.8699998856
"2001-08-08 15:00:00",25.6000003815,0.252000004053,-0.40000000596,-0.0299999993294,8.10000038147,4.19999980927,12.9099998474
"2001-08-08 16:00:00",25.6100006104,0.264999985695,-0.40000000596,-0.0299999993294,8.07999992371,4.5,12.8900003433
"2001-08-08 17:00:00",25.4699993134,0.266000002623,-0.40000000596,-0.0299999993294,8.02000045776,5.0,12.8999996185
"2001-08-08 18:00:00",25.2099990845,0.259000003338,-0.40000000596,-0.0299999993294,7.84999990463,8.80000019073,12.8100004196
"2001-08-08 19:00:00",25.1000003815,0.250999987125,-0.40000000596,-0.0299999993294,7.76000022888,7.80000019073,12.7399997711
"2001-08-08 20:00:00",24.9899997711,0.24699999392,-0.40000000596,-0.0299999993294,7.69999980927,6.30000019073,12.6999998093
"2001-08-08 21:00:00",24.8299999237,0.232999995351,-0.300000011921,-0.0299999993294,7.63000011444,6.40000009537,12.6700000763
"2001-08-08 22:00:00",24.6399993896,0.219999998808,-0.300000011921,-0.0299999993294,7.57999992371,6.90000009537,12.6499996185
"2001-08-08 23:00:00",24.4599990845,0.216999992728,-0.300000011921,-0.0299999993294,7.57999992371,5.80000019073,12.6300001144